| time (UTC) | temp C | wind direction | speed KPH | gust KPH | rain 1hr cm | rain 24hr cm | rain mn cm | humidity % | barometer mb |
| 20260506153034 | 14 | 344 | 8.0 | 12.9 | 0.00 | 0.00 | 0.00 | 82 | 1021.4 |
| 20260506151529 | 12 | 64 | 1.6 | 6.4 | 0.00 | 0.00 | 0.00 | 92 | 1021.2 |
| 20260506143037 | 8 | 172 | 1.6 | 4.8 | 0.00 | 0.00 | 0.00 | 96 | 1021.3 |
| 20260506141531 | 7 | 149 | 3.2 | 8.0 | 0.00 | 0.00 | 0.00 | 95 | 1021.0 |
| 20260506140030 | 7 | 157 | 3.2 | 6.4 | 0.00 | 0.00 | 0.00 | 94 | 1020.9 |
| 20260506134531 | 8 | 199 | 3.2 | 6.4 | 0.00 | 0.00 | 0.00 | 92 | 1020.8 |
| 20260506133033 | 9 | 297 | 6.4 | 25.7 | 0.00 | 0.00 | 0.00 | 96 | 1020.7 |
| 20260506131648 | 7 | 301 | 6.4 | 20.9 | 0.00 | 0.00 | 0.00 | 97 | 1020.6 |
| 20260506124534 | 7 | 173 | 4.8 | 9.7 | 0.00 | 0.00 | 0.00 | 97 | 1020.4 |
| 20260506123030 | 6 | 147 | 3.2 | 11.3 | 0.00 | 0.00 | 0.00 | 97 | 1020.1 |
| 20260506120034 | 6 | 186 | 3.2 | 11.3 | 0.00 | 0.00 | 0.00 | 96 | 1019.9 |
| 20260506114535 | 7 | 175 | 3.2 | 6.4 | 0.00 | 0.00 | 0.00 | 96 | 1019.8 |
| 20260506113108 | 7 | 147 | 3.2 | 6.4 | 0.00 | 0.00 | 0.00 | 96 | 1019.6 |
| 20260506111651 | 7 | 156 | 1.6 | 6.4 | 0.00 | 0.00 | 0.00 | 96 | 1019.5 |
| 20260506110034 | 7 | 177 | 3.2 | 9.7 | 0.00 | 0.00 | 0.00 | 96 | 1019.4 |
| 20260506104531 | 7 | 181 | 3.2 | 6.4 | 0.00 | 0.00 | 0.00 | 96 | 1019.2 |
| 20260506103033 | 7 | 187 | 4.8 | 6.4 | 0.00 | 0.00 | 0.00 | 96 | 1019.1 |
| 20260506101531 | 7 | 176 | 4.8 | 6.4 | 0.00 | 0.00 | 0.00 | 96 | 1019.0 |
| 20260506094609 | 7 | 180 | 3.2 | 6.4 | 0.00 | 0.00 | 0.00 | 95 | 1019.0 |
| 20260506093031 | 7 | 177 | 1.6 | 4.8 | 0.00 | 0.00 | 0.00 | 95 | 1019.0 |
| 20260506090031 | 8 | 179 | 3.2 | 6.4 | 0.00 | 0.00 | 0.00 | 94 | 1018.9 |
| 20260506083029 | 8 | 183 | 3.2 | 4.8 | 0.00 | 0.00 | 0.00 | 94 | 1018.7 |
| 20260506081539 | 8 | 180 | 3.2 | 6.4 | 0.00 | 0.00 | 0.00 | 93 | 1018.6 |
| 20260506073106 | 9 | 167 | 1.6 | 4.8 | 0.00 | 0.00 | 0.00 | 91 | 1018.3 |
| 20260506071531 | 10 | 168 | 3.2 | 6.4 | 0.00 | 0.00 | 0.00 | 90 | 1018.3 |
| 20260506070110 | 10 | 173 | 3.2 | 4.8 | 0.00 | 0.00 | 0.00 | 90 | 1018.2 |
| 20260506061537 | 10 | 175 | 3.2 | 6.4 | 0.00 | 0.00 | 0.00 | 88 | 1018.0 |
| 20260506044532 | 13 | 83 | 1.6 | 3.2 | 0.00 | 0.00 | 0.00 | 76 | 1017.4 |
| 20260506043030 | 14 | 71 | 1.6 | 4.8 | 0.00 | 0.00 | 0.00 | 73 | 1017.2 |
| 20260506041531 | 15 | 35 | 3.2 | 6.4 | 0.00 | 0.00 | 0.00 | 69 | 1017.1 |
| 20260506040107 | 16 | 22 | 6.4 | 11.3 | 0.00 | 0.00 | 0.00 | 68 | 1016.9 |
| 20260506034529 | 16 | 29 | 6.4 | 11.3 | 0.00 | 0.00 | 0.00 | 66 | 1016.6 |
| 20260506033030 | 17 | 20 | 4.8 | 14.5 | 0.00 | 0.00 | 0.00 | 64 | 1016.4 |
| 20260506031530 | 18 | 27 | 4.8 | 11.3 | 0.00 | 0.00 | 0.00 | 61 | 1016.2 |
| 20260506030031 | 18 | 6 | 6.4 | 11.3 | 0.00 | 0.00 | 0.00 | 59 | 1016.0 |
| 20260506024530 | 20 | 15 | 6.4 | 11.3 | 0.00 | 0.00 | 0.00 | 57 | 1015.8 |
| 20260506023029 | 20 | 24 | 4.8 | 9.7 | 0.00 | 0.00 | 0.00 | 55 | 1015.7 |
| 20260506021537 | 21 | 18 | 4.8 | 11.3 | 0.00 | 0.00 | 0.00 | 55 | 1015.7 |
| 20260506020031 | 21 | 32 | 9.7 | 16.1 | 0.00 | 0.00 | 0.00 | 54 | 1015.6 |
| 20260506013031 | 22 | 14 | 9.7 | 17.7 | 0.00 | 0.00 | 0.00 | 52 | 1015.4 |
| 20260506011529 | 22 | 360 | 8.0 | 16.1 | 0.00 | 0.00 | 0.00 | 51 | 1015.3 |
| 20260506010031 | 23 | 349 | 8.0 | 17.7 | 0.00 | 0.00 | 0.00 | 50 | 1015.2 |
| 20260506004533 | 23 | 348 | 8.0 | 14.5 | 0.00 | 0.00 | 0.00 | 49 | 1015.2 |
| 20260506003035 | 23 | 11 | 8.0 | 20.9 | 0.00 | 0.00 | 0.00 | 50 | 1015.2 |
| 20260506001542 | 23 | 18 | 11.3 | 19.3 | 0.00 | 0.00 | 0.00 | 50 | 1015.3 |
| 20260506000035 | 23 | 18 | 9.7 | 19.3 | 0.00 | 0.00 | 0.00 | 49 | 1015.4 |
| 20260505234529 | 23 | 20 | 8.0 | 17.7 | 0.00 | 0.00 | 0.00 | 50 | 1015.5 |
| 20260505233031 | 23 | 5 | 11.3 | 19.3 | 0.00 | 0.00 | 0.00 | 50 | 1015.5 |
| 20260505231531 | 24 | 11 | 9.7 | 19.3 | 0.00 | 0.00 | 0.00 | 50 | 1015.5 |
| 20260505230032 | 23 | 18 | 8.0 | 19.3 | 0.00 | 0.00 | 0.00 | 50 | 1015.6 |
| 20260505224532 | 23 | 15 | 9.7 | 17.7 | 0.00 | 0.00 | 0.00 | 51 | 1015.7 |
| 20260505223029 | 23 | 5 | 9.7 | 22.5 | 0.00 | 0.00 | 0.00 | 51 | 1015.8 |
| 20260505221531 | 23 | 11 | 11.3 | 20.9 | 0.00 | 0.00 | 0.00 | 51 | 1015.9 |
| 20260505220030 | 23 | 6 | 9.7 | 20.9 | 0.00 | 0.00 | 0.00 | 50 | 1016.0 |
| 20260505214532 | 23 | 3 | 8.0 | 16.1 | 0.00 | 0.00 | 0.00 | 50 | 1016.1 |
| 20260505213029 | 23 | 1 | 8.0 | 17.7 | 0.00 | 0.00 | 0.00 | 51 | 1016.1 |
| 20260505211530 | 23 | 11 | 9.7 | 19.3 | 0.00 | 0.00 | 0.00 | 52 | 1016.2 |
| 20260505210029 | 22 | 5 | 8.0 | 16.1 | 0.00 | 0.00 | 0.00 | 52 | 1016.3 |
| 20260505204608 | 22 | 7 | 6.4 | 14.5 | 0.00 | 0.00 | 0.00 | 52 | 1016.5 |
| 20260505203032 | 22 | 2 | 8.0 | 16.1 | 0.00 | 0.00 | 0.00 | 53 | 1016.5 |
| 20260505201603 | 22 | 349 | 8.0 | 16.1 | 0.00 | 0.00 | 0.00 | 54 | 1016.6 |
| 20260505200146 | 22 | 359 | 6.4 | 14.5 | 0.00 | 0.00 | 0.00 | 54 | 1016.7 |
| 20260505194602 | 22 | 17 | 8.0 | 17.7 | 0.00 | 0.00 | 0.00 | 53 | 1016.8 |
| 20260505191605 | 21 | 40 | 6.4 | 17.7 | 0.00 | 0.00 | 0.00 | 53 | 1016.8 |
| 20260505190029 | 21 | 32 | 4.8 | 11.3 | 0.00 | 0.00 | 0.00 | 54 | 1016.9 |
| 20260505184530 | 20 | 17 | 6.4 | 16.1 | 0.00 | 0.00 | 0.00 | 56 | 1017.0 |
| 20260505183029 | 20 | 43 | 9.7 | 17.7 | 0.00 | 0.00 | 0.00 | 56 | 1017.1 |
| 20260505180029 | 19 | 12 | 9.7 | 17.7 | 0.00 | 0.00 | 0.00 | 57 | 1017.0 |
| 20260505174604 | 18 | 353 | 6.4 | 17.7 | 0.00 | 0.00 | 0.00 | 59 | 1016.9 |
| 20260505173029 | 18 | 333 | 4.8 | 12.9 | 0.00 | 0.00 | 0.00 | 60 | 1016.9 |
| 20260505171532 | 18 | 341 | 6.4 | 14.5 | 0.00 | 0.00 | 0.00 | 62 | 1016.9 |
| 20260505170028 | 17 | 351 | 4.8 | 12.9 | 0.00 | 0.00 | 0.00 | 63 | 1016.9 |
| 20260505163030 | 17 | 16 | 6.4 | 14.5 | 0.00 | 0.00 | 0.00 | 67 | 1016.8 |
| 20260505161531 | 16 | 34 | 8.0 | 17.7 | 0.00 | 0.00 | 0.00 | 69 | 1016.9 |